Location: Triton
(47.6048°N, 122.9899°W)
Time: 17:01:08
(UTC+00:00)

ISS - Visible Passes

Search period start: 14 February 2026 00:00
Search period end: 24 February 2026 00:00
Orbit: 413 x 428 km, 51.6° (Epoch: 13 February)

Date Brightness Start Highest point End Pass type
(mag) Time Alt. Az. Time Alt. Az. Time Alt. Az.
14 Feb -1.0 13:06:08 12° SSE 13:07:29 14° SE 13:09:22 10° E visible
14 Feb -3.6 14:40:31 10° WSW 14:43:51 75° SSE 14:47:11 10° ENE visible
15 Feb -3.0 13:54:27 17° SW 13:56:50 50° SSE 14:00:05 10° ENE visible
16 Feb -2.5 13:09:35 33° SSE 13:09:49 33° SE 13:12:53 10° ENE visible
17 Feb -0.8 12:24:34 15° E 12:24:34 15° E 12:25:32 10° E visible
17 Feb -3.8 13:57:34 24° WSW 13:59:24 77° NNW 14:02:45 10° ENE visible
18 Feb -3.7 13:12:27 74° ESE 13:12:27 74° ESE 13:15:38 10° ENE visible
19 Feb -1.1 12:27:14 20° ENE 12:27:14 20° ENE 12:28:28 10° ENE visible
19 Feb -3.3 14:00:13 22° WNW 14:02:05 47° NNW 14:05:20 10° ENE visible
20 Feb -3.5 13:14:56 58° N 13:14:56 58° N 13:18:11 10° ENE visible
21 Feb -1.3 12:29:37 23° ENE 12:29:37 23° ENE 12:31:01 10° ENE visible
21 Feb -2.9 14:02:35 17° WNW 14:04:46 39° N 14:07:57 10° ENE visible
22 Feb -3.1 13:17:13 41° NNW 13:17:29 42° N 13:20:42 10° ENE visible
23 Feb -1.6 12:31:49 25° NE 12:31:49 25° NE 12:33:28 10° ENE visible
23 Feb -3.0 14:04:47 14° WNW 14:07:25 43° N 14:10:38 10° E visible
